Location: Powder Track
(41.8531°N, 72.3584°W)
Time: 09:22:31
(UTC+00:00)

Transit 4A - Pass Details

Date: 11 August 2021
Orbit: 871 x 974 km, 66.8° (Epoch: 20 September)

Event Time Altitude Azimuth Distance (km) Brightness Sun altitude
Rises 10:41:00 0° 333° (NNW) 3,480 10.8 7.5°
Reaches altitude 10° 10:43:33 10° 338° (NNW) 2,548 10.2 8.0°
Maximum altitude 10:49:18 51° 55° (NE) 1,110 9.1 9.1°
Drops below altitude 10° 10:55:08 10° 131° (SE) 2,594 10.9 10.1°
Sets 10:57:45 0° 136° (SE) 3,549 11.4 10.6°
